Year,Month,Day,Hour,Minute,Value (Times are PST for temperature in C)
2015,07,28,00,00,12.00
2015,07,28,00,01,12.00
2015,07,28,00,02,12.00
2015,07,28,00,03,12.00
2015,07,28,00,04,12.00
2015,07,28,00,05,12.00
2015,07,28,00,06,12.00
2015,07,28,00,07,12.00
2015,07,28,00,08,12.00
2015,07,28,00,09,12.00
2015,07,28,00,10,12.00
2015,07,28,00,11,12.00
2015,07,28,00,12,12.00
2015,07,28,00,13,12.00
2015,07,28,00,14,12.00
2015,07,28,00,15,12.00
2015,07,28,00,16,12.00
2015,07,28,00,17,12.00
2015,07,28,00,18,12.00
2015,07,28,00,19,12.00
2015,07,28,00,20,12.00
2015,07,28,00,21,12.10
2015,07,28,00,22,12.10
2015,07,28,00,23,12.10
2015,07,28,00,24,12.10
2015,07,28,00,25,12.10
2015,07,28,00,26,12.10
2015,07,28,00,27,12.10
2015,07,28,00,28,12.10
2015,07,28,00,29,12.10
2015,07,28,00,30,12.10
2015,07,28,00,31,12.10
2015,07,28,00,32,12.10
2015,07,28,00,33,12.10
2015,07,28,00,34,12.00
2015,07,28,00,35,12.00
2015,07,28,00,36,12.00
2015,07,28,00,37,12.00
2015,07,28,00,38,12.00
2015,07,28,00,39,12.00
2015,07,28,00,40,11.90
2015,07,28,00,41,11.90
2015,07,28,00,42,11.90
2015,07,28,00,43,11.90
2015,07,28,00,44,11.90
2015,07,28,00,45,11.90
2015,07,28,00,46,11.90
2015,07,28,00,47,11.90
2015,07,28,00,48,11.90
2015,07,28,00,49,11.90
2015,07,28,00,50,11.90
2015,07,28,00,51,11.90
2015,07,28,00,52,11.90
2015,07,28,00,53,11.90
2015,07,28,00,54,11.90
2015,07,28,00,55,11.90
2015,07,28,00,56,11.90
2015,07,28,00,57,11.90
2015,07,28,00,58,11.90
2015,07,28,00,59,11.90
2015,07,28,01,00,11.90
2015,07,28,01,01,11.90
2015,07,28,01,02,11.90
2015,07,28,01,03,11.90
2015,07,28,01,04,11.90
2015,07,28,01,05,11.90
2015,07,28,01,06,11.90
2015,07,28,01,07,11.90
2015,07,28,01,08,11.90
2015,07,28,01,09,11.90
2015,07,28,01,10,11.90
2015,07,28,01,11,11.90
2015,07,28,01,12,11.90
2015,07,28,01,13,11.90
2015,07,28,01,14,11.90
2015,07,28,01,15,11.90
2015,07,28,01,16,11.90
2015,07,28,01,17,11.90
2015,07,28,01,18,11.90
2015,07,28,01,19,11.90
2015,07,28,01,20,11.90
2015,07,28,01,21,11.80
2015,07,28,01,22,11.80
2015,07,28,01,23,11.80
2015,07,28,01,24,11.80
2015,07,28,01,25,11.80
2015,07,28,01,26,11.80
2015,07,28,01,27,11.80
2015,07,28,01,28,11.80
2015,07,28,01,29,11.80
2015,07,28,01,30,11.80
2015,07,28,01,31,11.80
2015,07,28,01,32,11.80
2015,07,28,01,33,11.80
2015,07,28,01,34,11.80
2015,07,28,01,35,11.80
2015,07,28,01,36,11.80
2015,07,28,01,37,11.80
2015,07,28,01,38,11.80
2015,07,28,01,39,11.80
2015,07,28,01,40,11.80
2015,07,28,01,41,11.80
2015,07,28,01,42,11.80
2015,07,28,01,43,11.80
2015,07,28,01,44,11.80
2015,07,28,01,45,11.80
2015,07,28,01,46,11.80
2015,07,28,01,47,11.80
2015,07,28,01,48,11.80
2015,07,28,01,49,11.80
2015,07,28,01,50,11.80
2015,07,28,01,51,11.80
2015,07,28,01,52,11.80
2015,07,28,01,53,11.80
2015,07,28,01,54,11.80
2015,07,28,01,55,11.80
2015,07,28,01,56,11.80
2015,07,28,01,57,11.80
2015,07,28,01,58,11.80
2015,07,28,01,59,11.80
2015,07,28,02,00,11.80
2015,07,28,02,01,11.80
2015,07,28,02,02,11.80
2015,07,28,02,03,11.80
2015,07,28,02,04,11.70
2015,07,28,02,05,11.70
2015,07,28,02,06,11.70
2015,07,28,02,07,11.70
2015,07,28,02,08,11.70
2015,07,28,02,09,11.70
2015,07,28,02,10,11.70
2015,07,28,02,11,11.70
2015,07,28,02,12,11.70
2015,07,28,02,13,11.70
2015,07,28,02,14,11.70
2015,07,28,02,15,11.70
2015,07,28,02,16,11.70
2015,07,28,02,17,11.70
2015,07,28,02,18,11.70
2015,07,28,02,19,11.70
2015,07,28,02,20,11.70
2015,07,28,02,21,11.70
2015,07,28,02,22,11.70
2015,07,28,02,23,11.70
2015,07,28,02,24,11.70
2015,07,28,02,25,11.70
2015,07,28,02,26,11.70
2015,07,28,02,27,11.70
2015,07,28,02,28,11.70
2015,07,28,02,29,11.70
2015,07,28,02,30,11.80
2015,07,28,02,31,11.80
2015,07,28,02,32,11.80
2015,07,28,02,33,11.80
2015,07,28,02,34,11.70
2015,07,28,02,35,11.70
2015,07,28,02,36,11.70
2015,07,28,02,37,11.70
2015,07,28,02,38,11.70
2015,07,28,02,39,11.70
2015,07,28,02,40,11.70
2015,07,28,02,41,11.70
2015,07,28,02,42,11.60
2015,07,28,02,43,11.60
2015,07,28,02,44,11.60
2015,07,28,02,45,11.60
2015,07,28,02,46,11.60
2015,07,28,02,47,11.60
2015,07,28,02,48,11.60
2015,07,28,02,49,11.60
2015,07,28,02,50,11.60
2015,07,28,02,51,11.60
2015,07,28,02,52,11.60
2015,07,28,02,53,11.60
2015,07,28,02,54,11.60
2015,07,28,02,55,11.60
2015,07,28,02,56,11.60
2015,07,28,02,57,11.60
2015,07,28,02,58,11.60
2015,07,28,02,59,11.60
2015,07,28,03,00,11.60
2015,07,28,03,01,11.60
2015,07,28,03,02,11.60
2015,07,28,03,03,11.60
2015,07,28,03,04,11.50
2015,07,28,03,05,11.40
2015,07,28,03,06,11.40
2015,07,28,03,07,11.40
2015,07,28,03,08,11.40
2015,07,28,03,09,11.40
2015,07,28,03,10,11.40
2015,07,28,03,11,11.40
2015,07,28,03,12,11.40
2015,07,28,03,13,11.40
2015,07,28,03,14,11.40
2015,07,28,03,15,11.40
2015,07,28,03,16,11.40
2015,07,28,03,17,11.40
2015,07,28,03,18,11.40
2015,07,28,03,19,11.40
2015,07,28,03,20,11.40
2015,07,28,03,21,11.40
2015,07,28,03,22,11.40
2015,07,28,03,23,11.40
2015,07,28,03,24,11.40
2015,07,28,03,25,11.40
2015,07,28,03,26,11.40
2015,07,28,03,27,11.40
2015,07,28,03,28,11.40
2015,07,28,03,29,11.40
2015,07,28,03,30,11.40
2015,07,28,03,31,11.40
2015,07,28,03,32,11.40
2015,07,28,03,33,11.40
2015,07,28,03,34,11.40
2015,07,28,03,35,11.40
2015,07,28,03,36,11.40
2015,07,28,03,37,11.40
2015,07,28,03,38,11.40
2015,07,28,03,39,11.50
2015,07,28,03,40,11.60
2015,07,28,03,41,11.60
2015,07,28,03,42,11.60
2015,07,28,03,43,11.60
2015,07,28,03,44,11.60
2015,07,28,03,45,11.60
2015,07,28,03,46,11.60
2015,07,28,03,47,11.60
2015,07,28,03,48,11.60
2015,07,28,03,49,11.60
2015,07,28,03,50,11.60
2015,07,28,03,51,11.60
2015,07,28,03,52,11.50
2015,07,28,03,53,11.40
2015,07,28,03,54,11.40
2015,07,28,03,55,11.40
2015,07,28,03,56,11.40
2015,07,28,03,57,11.40
2015,07,28,03,58,11.40
2015,07,28,03,59,11.40
2015,07,28,04,00,11.40
2015,07,28,04,01,11.40
2015,07,28,04,02,11.40
2015,07,28,04,03,11.40
2015,07,28,04,04,11.40
2015,07,28,04,05,11.30
2015,07,28,04,06,11.30
2015,07,28,04,07,11.30
2015,07,28,04,08,11.30
2015,07,28,04,09,11.30
2015,07,28,04,10,11.30
2015,07,28,04,11,11.20
2015,07,28,04,12,11.20
2015,07,28,04,13,11.20
2015,07,28,04,14,11.20
2015,07,28,04,15,11.20
2015,07,28,04,16,11.20
2015,07,28,04,17,11.10
2015,07,28,04,18,11.10
2015,07,28,04,19,11.10
2015,07,28,04,20,11.10
2015,07,28,04,21,11.10
2015,07,28,04,22,11.10
2015,07,28,04,23,11.10
2015,07,28,04,24,11.00
2015,07,28,04,25,10.90
2015,07,28,04,26,10.90
2015,07,28,04,27,10.90
2015,07,28,04,28,10.90
2015,07,28,04,29,10.90
2015,07,28,04,30,10.90
2015,07,28,04,31,10.90
2015,07,28,04,32,10.90
2015,07,28,04,33,10.90
2015,07,28,04,34,10.90
2015,07,28,04,35,10.90
2015,07,28,04,36,10.90
2015,07,28,04,37,10.90
2015,07,28,04,38,10.90
2015,07,28,04,39,10.90
2015,07,28,04,40,10.90
2015,07,28,04,41,10.90
2015,07,28,04,42,10.90
2015,07,28,04,43,10.90
2015,07,28,04,44,10.90
2015,07,28,04,45,10.90
2015,07,28,04,46,10.80
2015,07,28,04,47,10.80
2015,07,28,04,48,10.80
2015,07,28,04,49,10.80
2015,07,28,04,50,10.80
2015,07,28,04,51,10.80
2015,07,28,04,52,10.80
2015,07,28,04,53,10.80
2015,07,28,04,54,10.80
2015,07,28,04,55,10.80
2015,07,28,04,56,10.80
2015,07,28,04,57,10.80
2015,07,28,04,58,10.80
2015,07,28,04,59,10.80
2015,07,28,05,00,10.80
2015,07,28,05,01,10.80
2015,07,28,05,02,10.70
2015,07,28,05,03,10.70
2015,07,28,05,04,10.70
2015,07,28,05,05,10.70
2015,07,28,05,06,10.70
2015,07,28,05,07,10.70
2015,07,28,05,08,10.70
2015,07,28,05,09,10.70
2015,07,28,05,10,10.70
2015,07,28,05,11,10.70
2015,07,28,05,12,10.70
2015,07,28,05,13,10.70
2015,07,28,05,14,10.70
2015,07,28,05,15,10.70
2015,07,28,05,16,10.70
2015,07,28,05,17,10.70
2015,07,28,05,18,10.70
2015,07,28,05,19,10.70
2015,07,28,05,20,10.80
2015,07,28,05,21,10.80
2015,07,28,05,22,10.80
2015,07,28,05,23,10.80
2015,07,28,05,24,10.80
2015,07,28,05,25,10.80
2015,07,28,05,26,10.80
2015,07,28,05,27,10.70
2015,07,28,05,28,10.70
2015,07,28,05,29,10.70
2015,07,28,05,30,10.70
2015,07,28,05,31,10.70
2015,07,28,05,32,10.70
2015,07,28,05,33,10.70
2015,07,28,05,34,10.60
2015,07,28,05,35,10.60
2015,07,28,05,36,10.60
2015,07,28,05,37,10.60
2015,07,28,05,38,10.60
2015,07,28,05,39,10.60
2015,07,28,05,40,10.60
2015,07,28,05,41,10.60
2015,07,28,05,42,10.60
2015,07,28,05,43,10.60
2015,07,28,05,44,10.60
2015,07,28,05,45,10.60
2015,07,28,05,46,10.60
2015,07,28,05,47,10.60
2015,07,28,05,48,10.60
2015,07,28,05,49,10.60
2015,07,28,05,50,10.60
2015,07,28,05,51,10.60
2015,07,28,05,52,10.60
2015,07,28,05,53,10.60
2015,07,28,05,54,10.60
2015,07,28,05,55,10.60
2015,07,28,05,56,10.60
2015,07,28,05,57,10.60
2015,07,28,05,58,10.60
2015,07,28,05,59,10.60
2015,07,28,06,00,10.60
2015,07,28,06,01,10.60
2015,07,28,06,02,10.60
2015,07,28,06,03,10.60
2015,07,28,06,04,10.60
2015,07,28,06,05,10.60
2015,07,28,06,06,10.60
2015,07,28,06,07,10.60
2015,07,28,06,08,10.60
2015,07,28,06,09,10.60
2015,07,28,06,10,10.60
2015,07,28,06,11,10.60
2015,07,28,06,12,10.60
2015,07,28,06,13,10.60
2015,07,28,06,14,10.60
2015,07,28,06,15,10.60
2015,07,28,06,16,10.60
2015,07,28,06,17,10.60
2015,07,28,06,18,10.60
2015,07,28,06,19,10.60
2015,07,28,06,20,10.60
2015,07,28,06,21,10.60
2015,07,28,06,22,10.60
2015,07,28,06,23,10.60
2015,07,28,06,24,10.60
2015,07,28,06,25,10.60
2015,07,28,06,26,10.60
2015,07,28,06,27,10.60
2015,07,28,06,28,10.60
2015,07,28,06,29,10.60
2015,07,28,06,30,10.60
2015,07,28,06,31,10.60
2015,07,28,06,32,10.60
2015,07,28,06,33,10.60
2015,07,28,06,34,10.60
2015,07,28,06,35,10.60
2015,07,28,06,36,10.60
2015,07,28,06,37,10.60
2015,07,28,06,38,10.60
2015,07,28,06,39,10.60
2015,07,28,06,40,10.60
2015,07,28,06,41,10.60
2015,07,28,06,42,10.60
2015,07,28,06,43,10.60
2015,07,28,06,44,10.60
2015,07,28,06,45,10.60
2015,07,28,06,46,10.60
2015,07,28,06,47,10.60
2015,07,28,06,48,10.60
2015,07,28,06,49,10.60
2015,07,28,06,50,10.60
2015,07,28,06,51,10.70
2015,07,28,06,52,10.70
2015,07,28,06,53,10.70
2015,07,28,06,54,10.80
2015,07,28,06,55,10.80
2015,07,28,06,56,10.80
2015,07,28,06,57,10.90
2015,07,28,06,58,10.90
2015,07,28,06,59,10.90
2015,07,28,07,00,11.00
2015,07,28,07,01,11.10
2015,07,28,07,02,11.10
2015,07,28,07,03,11.10
2015,07,28,07,04,11.10
2015,07,28,07,05,11.10
2015,07,28,07,06,11.10
2015,07,28,07,07,11.20
2015,07,28,07,08,11.20
2015,07,28,07,09,11.20
2015,07,28,07,10,11.20
2015,07,28,07,11,11.20
2015,07,28,07,12,11.20
2015,07,28,07,13,11.20
2015,07,28,07,14,11.30
2015,07,28,07,15,11.30
2015,07,28,07,16,11.30
2015,07,28,07,17,11.30
2015,07,28,07,18,11.30
2015,07,28,07,19,11.30
2015,07,28,07,20,11.40
2015,07,28,07,21,11.40
2015,07,28,07,22,11.40
2015,07,28,07,23,11.40
2015,07,28,07,24,11.50
2015,07,28,07,25,11.60
2015,07,28,07,26,11.60
2015,07,28,07,27,11.60
2015,07,28,07,28,11.70
2015,07,28,07,29,11.70
2015,07,28,07,30,11.80
2015,07,28,07,31,11.80
2015,07,28,07,32,11.90
2015,07,28,07,33,12.00
2015,07,28,07,34,12.00
2015,07,28,07,35,12.10
2015,07,28,07,36,12.20
2015,07,28,07,37,12.20
2015,07,28,07,38,12.30
2015,07,28,07,39,12.30
2015,07,28,07,40,12.30
2015,07,28,07,41,12.40
2015,07,28,07,42,12.50
2015,07,28,07,43,12.50
2015,07,28,07,44,12.60
2015,07,28,07,45,12.70
2015,07,28,07,46,12.70
2015,07,28,07,47,12.80
2015,07,28,07,48,12.80
2015,07,28,07,49,12.90
2015,07,28,07,50,13.00
2015,07,28,07,51,13.00
2015,07,28,07,52,13.10
2015,07,28,07,53,13.20
2015,07,28,07,54,13.20
2015,07,28,07,55,13.30
2015,07,28,07,56,13.40
2015,07,28,07,57,13.40
2015,07,28,07,58,13.50
2015,07,28,07,59,13.60
2015,07,28,08,00,13.60
2015,07,28,08,01,13.70
2015,07,28,08,02,13.70
2015,07,28,08,03,13.80
2015,07,28,08,04,13.90
2015,07,28,08,05,13.90
2015,07,28,08,06,14.00
2015,07,28,08,07,14.10
2015,07,28,08,08,14.10
2015,07,28,08,09,14.20
2015,07,28,08,10,14.20
2015,07,28,08,11,14.30
2015,07,28,08,12,14.30
2015,07,28,08,13,14.40
2015,07,28,08,14,14.40
2015,07,28,08,15,14.50
2015,07,28,08,16,14.60
2015,07,28,08,17,14.60
2015,07,28,08,18,14.70
2015,07,28,08,19,14.80
2015,07,28,08,20,14.80
2015,07,28,08,21,14.80
2015,07,28,08,22,14.90
2015,07,28,08,23,15.00
2015,07,28,08,24,15.10
2015,07,28,08,25,15.20
2015,07,28,08,26,15.30
2015,07,28,08,27,15.30
2015,07,28,08,28,15.30
2015,07,28,08,29,15.40
2015,07,28,08,30,15.50
2015,07,28,08,31,15.60
2015,07,28,08,32,15.70
2015,07,28,08,33,15.80
2015,07,28,08,34,16.00
2015,07,28,08,35,16.20
2015,07,28,08,36,16.30
2015,07,28,08,37,16.40
2015,07,28,08,38,16.60
2015,07,28,08,39,16.70
2015,07,28,08,40,16.90
2015,07,28,08,41,17.00
2015,07,28,08,42,17.10
2015,07,28,08,43,17.10
2015,07,28,08,44,17.10
2015,07,28,08,45,17.20
2015,07,28,08,46,17.30
2015,07,28,08,47,17.30
2015,07,28,08,48,17.50
2015,07,28,08,49,17.60
2015,07,28,08,50,17.60
2015,07,28,08,51,17.70
2015,07,28,08,52,17.80
2015,07,28,08,53,17.80
2015,07,28,08,54,17.90
2015,07,28,08,55,17.90
2015,07,28,08,56,17.90
2015,07,28,08,57,17.90
2015,07,28,08,58,18.10
2015,07,28,08,59,18.10
2015,07,28,09,00,18.20
2015,07,28,09,01,18.20
2015,07,28,09,02,18.20
2015,07,28,09,03,18.20
2015,07,28,09,04,18.20
2015,07,28,09,05,18.20
2015,07,28,09,06,18.20
2015,07,28,09,07,18.30
2015,07,28,09,08,18.30
2015,07,28,09,09,18.40
2015,07,28,09,10,18.50
2015,07,28,09,11,18.50
2015,07,28,09,12,18.60
2015,07,28,09,13,18.60
2015,07,28,09,14,18.70
2015,07,28,09,15,18.80
2015,07,28,09,16,18.80
2015,07,28,09,17,18.80
2015,07,28,09,18,18.90
2015,07,28,09,19,18.90
2015,07,28,09,20,18.90
2015,07,28,09,21,18.90
2015,07,28,09,22,18.90
2015,07,28,09,23,18.90
2015,07,28,09,24,18.90
2015,07,28,09,25,18.90
2015,07,28,09,26,19.10
2015,07,28,09,27,19.10
2015,07,28,09,28,19.10
2015,07,28,09,29,19.10
2015,07,28,09,30,19.20
2015,07,28,09,31,19.20
2015,07,28,09,32,19.30
2015,07,28,09,33,19.30
2015,07,28,09,34,19.40
2015,07,28,09,35,19.40
2015,07,28,09,36,19.40
2015,07,28,09,37,19.40
2015,07,28,09,38,19.40
2015,07,28,09,39,19.50
2015,07,28,09,40,19.50
2015,07,28,09,41,19.60
2015,07,28,09,42,19.70
2015,07,28,09,43,19.70
2015,07,28,09,44,19.70
2015,07,28,09,45,19.70
2015,07,28,09,46,19.70
2015,07,28,09,47,19.70
2015,07,28,09,48,19.70
2015,07,28,09,49,19.70
2015,07,28,09,50,19.70
2015,07,28,09,51,19.70
2015,07,28,09,52,19.70
2015,07,28,09,53,19.80
2015,07,28,09,54,19.80
2015,07,28,09,55,19.80
2015,07,28,09,56,19.90
2015,07,28,09,57,19.90
2015,07,28,09,58,19.90
2015,07,28,09,59,19.90
2015,07,28,10,00,19.90
2015,07,28,10,01,19.90
2015,07,28,10,02,19.90
2015,07,28,10,03,19.90
2015,07,28,10,04,19.90
2015,07,28,10,05,19.90
2015,07,28,10,06,20.00
2015,07,28,10,07,20.10
2015,07,28,10,08,20.20
2015,07,28,10,09,20.20
2015,07,28,10,10,20.20
2015,07,28,10,11,20.20
2015,07,28,10,12,20.30
2015,07,28,10,13,20.30
2015,07,28,10,14,20.30
2015,07,28,10,15,20.30
2015,07,28,10,16,20.40
2015,07,28,10,17,20.50
2015,07,28,10,18,20.60
2015,07,28,10,19,20.60
2015,07,28,10,20,20.70
2015,07,28,10,21,20.70
2015,07,28,10,22,20.70
2015,07,28,10,23,20.70
2015,07,28,10,24,20.80
2015,07,28,10,25,20.90
2015,07,28,10,26,21.00
2015,07,28,10,27,21.00
2015,07,28,10,28,21.10
2015,07,28,10,29,21.10
2015,07,28,10,30,21.20
2015,07,28,10,31,21.10
2015,07,28,10,32,21.10
2015,07,28,10,33,21.00
2015,07,28,10,34,21.00
2015,07,28,10,35,21.00
2015,07,28,10,36,21.00
2015,07,28,10,37,21.00
2015,07,28,10,38,21.00
2015,07,28,10,39,21.00
2015,07,28,10,40,21.00
2015,07,28,10,41,21.10
2015,07,28,10,42,21.10
2015,07,28,10,43,21.00
2015,07,28,10,44,21.00
2015,07,28,10,45,21.00
2015,07,28,10,46,21.00
2015,07,28,10,47,21.00
2015,07,28,10,48,21.00
2015,07,28,10,49,21.10
2015,07,28,10,50,21.20
2015,07,28,10,51,21.30
2015,07,28,10,52,21.30
2015,07,28,10,53,21.40
2015,07,28,10,54,21.50
2015,07,28,10,55,21.60
2015,07,28,10,56,21.60
2015,07,28,10,57,21.70
2015,07,28,10,58,21.70
2015,07,28,10,59,21.80
2015,07,28,11,00,21.80
2015,07,28,11,01,21.80
2015,07,28,11,02,21.90
2015,07,28,11,03,21.90
2015,07,28,11,04,22.00
2015,07,28,11,05,22.00
2015,07,28,11,06,22.00
2015,07,28,11,07,22.00
2015,07,28,11,08,22.00
2015,07,28,11,09,22.10
2015,07,28,11,10,22.10
2015,07,28,11,11,22.20
2015,07,28,11,12,22.30
2015,07,28,11,13,22.30
2015,07,28,11,14,22.40
2015,07,28,11,15,22.50
2015,07,28,11,16,22.50
2015,07,28,11,17,22.60
2015,07,28,11,18,22.60
2015,07,28,11,19,22.70
2015,07,28,11,20,22.80
2015,07,28,11,21,22.90
2015,07,28,11,22,22.90
2015,07,28,11,23,23.00
2015,07,28,11,24,23.10
2015,07,28,11,25,23.10
2015,07,28,11,26,23.10
2015,07,28,11,27,23.10
2015,07,28,11,28,23.10
2015,07,28,11,29,23.10
2015,07,28,11,30,23.10
2015,07,28,11,31,23.20
2015,07,28,11,32,23.20
2015,07,28,11,33,23.20
2015,07,28,11,34,23.30
2015,07,28,11,35,23.30
2015,07,28,11,36,23.20
2015,07,28,11,37,23.20
2015,07,28,11,38,23.10
2015,07,28,11,39,23.10
2015,07,28,11,40,23.10
2015,07,28,11,41,23.10
2015,07,28,11,42,23.10
2015,07,28,11,43,23.10
2015,07,28,11,44,23.00
2015,07,28,11,45,22.90
2015,07,28,11,46,22.90
2015,07,28,11,47,23.00
2015,07,28,11,48,23.10
2015,07,28,11,49,23.00
2015,07,28,11,50,22.90
2015,07,28,11,51,22.90
2015,07,28,11,52,22.90
2015,07,28,11,53,22.90
2015,07,28,11,54,22.90
2015,07,28,11,55,22.90
2015,07,28,11,56,23.10
2015,07,28,11,57,23.20
2015,07,28,11,58,23.30
2015,07,28,11,59,23.30
2015,07,28,12,00,23.30
2015,07,28,12,01,23.30
2015,07,28,12,02,23.30
2015,07,28,12,03,23.30
2015,07,28,12,04,23.30
2015,07,28,12,05,23.30
2015,07,28,12,06,23.30
2015,07,28,12,07,23.30
2015,07,28,12,08,23.30
2015,07,28,12,09,23.30
2015,07,28,12,10,23.30
2015,07,28,12,11,23.30
2015,07,28,12,12,23.40
2015,07,28,12,13,23.40
2015,07,28,12,14,23.40
2015,07,28,12,15,23.30
2015,07,28,12,16,23.30
2015,07,28,12,17,23.40
2015,07,28,12,18,23.40
2015,07,28,12,19,23.40
2015,07,28,12,20,23.40
2015,07,28,12,21,23.40
2015,07,28,12,22,23.30
2015,07,28,12,23,23.30
2015,07,28,12,24,23.30
2015,07,28,12,25,23.20
2015,07,28,12,26,23.20
2015,07,28,12,27,23.20
2015,07,28,12,28,23.20
2015,07,28,12,29,23.20
2015,07,28,12,30,23.30
2015,07,28,12,31,23.30
2015,07,28,12,32,23.40
2015,07,28,12,33,23.50
2015,07,28,12,34,23.70
2015,07,28,12,35,23.80
2015,07,28,12,36,23.80
2015,07,28,12,37,23.90
2015,07,28,12,38,23.80
2015,07,28,12,39,23.80
2015,07,28,12,40,23.80
2015,07,28,12,41,23.90
2015,07,28,12,42,23.90
2015,07,28,12,43,24.10
2015,07,28,12,44,24.10
2015,07,28,12,45,24.10
2015,07,28,12,46,24.20
2015,07,28,12,47,24.30
2015,07,28,12,48,24.30
2015,07,28,12,49,24.20
2015,07,28,12,50,24.00
2015,07,28,12,51,23.90
2015,07,28,12,52,23.80
2015,07,28,12,53,23.80
2015,07,28,12,54,23.80
2015,07,28,12,55,23.80
2015,07,28,12,56,23.80
2015,07,28,12,57,23.70
2015,07,28,12,58,23.80
2015,07,28,12,59,23.80
2015,07,28,13,00,23.90
2015,07,28,13,01,23.90
2015,07,28,13,02,23.90
2015,07,28,13,03,23.80
2015,07,28,13,04,23.70
2015,07,28,13,05,23.70
2015,07,28,13,06,23.70
2015,07,28,13,07,23.60
2015,07,28,13,08,23.50
2015,07,28,13,09,23.40
2015,07,28,13,10,23.40
2015,07,28,13,11,23.40
2015,07,28,13,12,23.40
2015,07,28,13,13,23.50
2015,07,28,13,14,23.40
2015,07,28,13,15,23.40
2015,07,28,13,16,23.40
2015,07,28,13,17,23.40
2015,07,28,13,18,23.30
2015,07,28,13,19,23.30
2015,07,28,13,20,23.30
2015,07,28,13,21,23.30
2015,07,28,13,22,23.40
2015,07,28,13,23,23.50
2015,07,28,13,24,23.60
2015,07,28,13,25,23.70
2015,07,28,13,26,23.70
2015,07,28,13,27,23.70
2015,07,28,13,28,23.80
2015,07,28,13,29,23.90
2015,07,28,13,30,23.90
2015,07,28,13,31,23.90
2015,07,28,13,32,23.70
2015,07,28,13,33,23.60
2015,07,28,13,34,23.50
2015,07,28,13,35,23.40
2015,07,28,13,36,23.40
2015,07,28,13,37,23.50
2015,07,28,13,38,23.60
2015,07,28,13,39,23.70
2015,07,28,13,40,23.70
2015,07,28,13,41,23.90
2015,07,28,13,42,24.00
2015,07,28,13,43,24.10
2015,07,28,13,44,23.90
2015,07,28,13,45,23.80
2015,07,28,13,46,23.70
2015,07,28,13,47,23.70
2015,07,28,13,48,23.60
2015,07,28,13,49,23.60
2015,07,28,13,50,23.60
2015,07,28,13,51,23.60
2015,07,28,13,52,23.60
2015,07,28,13,53,23.70
2015,07,28,13,54,23.70
2015,07,28,13,55,23.70
2015,07,28,13,56,23.80
2015,07,28,13,57,23.80
2015,07,28,13,58,23.90
2015,07,28,13,59,23.90
2015,07,28,14,00,23.90
2015,07,28,14,01,24.00
2015,07,28,14,02,23.90
2015,07,28,14,03,23.80
2015,07,28,14,04,23.80
2015,07,28,14,05,23.80
2015,07,28,14,06,23.80
2015,07,28,14,07,23.90
2015,07,28,14,08,23.90
2015,07,28,14,09,23.90
2015,07,28,14,10,23.90
2015,07,28,14,11,23.90
2015,07,28,14,12,23.90
2015,07,28,14,13,23.90
2015,07,28,14,14,23.90
2015,07,28,14,15,23.80
2015,07,28,14,16,23.70
2015,07,28,14,17,23.70
2015,07,28,14,18,23.70
2015,07,28,14,19,23.80
2015,07,28,14,20,23.80
2015,07,28,14,21,23.90
2015,07,28,14,22,23.90
2015,07,28,14,23,24.00
2015,07,28,14,24,24.10
2015,07,28,14,25,24.10
2015,07,28,14,26,24.10
2015,07,28,14,27,24.10
2015,07,28,14,28,24.10
2015,07,28,14,29,24.10
2015,07,28,14,30,24.10
2015,07,28,14,31,24.10
2015,07,28,14,32,24.10
2015,07,28,14,33,24.10
2015,07,28,14,34,24.10
2015,07,28,14,35,24.10
2015,07,28,14,36,24.10
2015,07,28,14,37,24.10
2015,07,28,14,38,24.20
2015,07,28,14,39,24.20
2015,07,28,14,40,24.20
2015,07,28,14,41,24.20
2015,07,28,14,42,24.10
2015,07,28,14,43,24.10
2015,07,28,14,44,24.10
2015,07,28,14,45,24.10
2015,07,28,14,46,24.10
2015,07,28,14,47,24.10
2015,07,28,14,48,24.20
2015,07,28,14,49,24.20
2015,07,28,14,50,24.20
2015,07,28,14,51,24.30
2015,07,28,14,52,24.30
2015,07,28,14,53,24.30
2015,07,28,14,54,24.30
2015,07,28,14,55,24.20
2015,07,28,14,56,24.20
2015,07,28,14,57,24.10
2015,07,28,14,58,24.10
2015,07,28,14,59,24.00
2015,07,28,15,00,23.90
2015,07,28,15,01,23.80
2015,07,28,15,02,23.80
2015,07,28,15,03,23.80
2015,07,28,15,04,23.80
2015,07,28,15,05,23.80
2015,07,28,15,06,23.80
2015,07,28,15,07,23.80
2015,07,28,15,08,23.90
2015,07,28,15,09,23.90
2015,07,28,15,10,24.00
2015,07,28,15,11,24.10
2015,07,28,15,12,24.10
2015,07,28,15,13,24.10
2015,07,28,15,14,24.10
2015,07,28,15,15,24.10
2015,07,28,15,16,24.20
2015,07,28,15,17,24.20
2015,07,28,15,18,24.30
2015,07,28,15,19,24.20
2015,07,28,15,20,24.20
2015,07,28,15,21,24.20
2015,07,28,15,22,24.20
2015,07,28,15,23,24.20
2015,07,28,15,24,24.30
2015,07,28,15,25,24.40
2015,07,28,15,26,24.50
2015,07,28,15,27,24.50
2015,07,28,15,28,24.60
2015,07,28,15,29,24.60
2015,07,28,15,30,24.70
2015,07,28,15,31,24.80
2015,07,28,15,32,24.90
2015,07,28,15,33,24.90
2015,07,28,15,34,24.90
2015,07,28,15,35,24.90
2015,07,28,15,36,24.90
2015,07,28,15,37,25.00
2015,07,28,15,38,24.90
2015,07,28,15,39,24.90
2015,07,28,15,40,24.80
2015,07,28,15,41,24.80
2015,07,28,15,42,24.70
2015,07,28,15,43,24.60
2015,07,28,15,44,24.60
2015,07,28,15,45,24.60
2015,07,28,15,46,24.60
2015,07,28,15,47,24.50
2015,07,28,15,48,24.50
2015,07,28,15,49,24.40
2015,07,28,15,50,24.40
2015,07,28,15,51,24.40
2015,07,28,15,52,24.40
2015,07,28,15,53,24.40
2015,07,28,15,54,24.40
2015,07,28,15,55,24.30
2015,07,28,15,56,24.30
2015,07,28,15,57,24.20
2015,07,28,15,58,24.20
2015,07,28,15,59,24.30
2015,07,28,16,00,24.30
2015,07,28,16,01,24.30
2015,07,28,16,02,24.30
2015,07,28,16,03,24.30
2015,07,28,16,04,24.30
2015,07,28,16,05,24.20
2015,07,28,16,06,24.10
2015,07,28,16,07,24.10
2015,07,28,16,08,24.10
2015,07,28,16,09,24.10
2015,07,28,16,10,24.00
2015,07,28,16,11,23.90
2015,07,28,16,12,23.80
2015,07,28,16,13,23.70
2015,07,28,16,14,23.70
2015,07,28,16,15,23.60
2015,07,28,16,16,23.60
2015,07,28,16,17,23.50
2015,07,28,16,18,23.40
2015,07,28,16,19,23.40
2015,07,28,16,20,23.30
2015,07,28,16,21,23.30
2015,07,28,16,22,23.30
2015,07,28,16,23,23.30
2015,07,28,16,24,23.20
2015,07,28,16,25,23.20
2015,07,28,16,26,23.20
2015,07,28,16,27,23.10
2015,07,28,16,28,23.00
2015,07,28,16,29,22.90
2015,07,28,16,30,22.90
2015,07,28,16,31,22.90
2015,07,28,16,32,22.80
2015,07,28,16,33,22.80
2015,07,28,16,34,22.80
2015,07,28,16,35,22.80
2015,07,28,16,36,22.70
2015,07,28,16,37,22.70
2015,07,28,16,38,22.70
2015,07,28,16,39,22.70
2015,07,28,16,40,22.70
2015,07,28,16,41,22.70
2015,07,28,16,42,22.60
2015,07,28,16,43,22.60
2015,07,28,16,44,22.60
2015,07,28,16,45,22.60
2015,07,28,16,46,22.60
2015,07,28,16,47,22.60
2015,07,28,16,48,22.60
2015,07,28,16,49,22.60
2015,07,28,16,50,22.60
2015,07,28,16,51,22.60
2015,07,28,16,52,22.60
2015,07,28,16,53,22.60
2015,07,28,16,54,22.60
2015,07,28,16,55,22.60
2015,07,28,16,56,22.60
2015,07,28,16,57,22.60
2015,07,28,16,58,22.60
2015,07,28,16,59,22.60
2015,07,28,17,00,22.60
2015,07,28,17,01,22.60
2015,07,28,17,02,22.60
2015,07,28,17,03,22.60
2015,07,28,17,04,22.50
2015,07,28,17,05,22.50
2015,07,28,17,06,22.50
2015,07,28,17,07,22.50
2015,07,28,17,08,22.40
2015,07,28,17,09,22.40
2015,07,28,17,10,22.40
2015,07,28,17,11,22.40
2015,07,28,17,12,22.40
2015,07,28,17,13,22.40
2015,07,28,17,14,22.40
2015,07,28,17,15,22.40
2015,07,28,17,16,22.40
2015,07,28,17,17,22.40
2015,07,28,17,18,22.40
2015,07,28,17,19,22.40